EDT,Max TemperatureF,Mean TemperatureF,Min TemperatureF,Max Dew PointF,MeanDew PointF,Min DewpointF,Max Humidity, Mean Humidity, Min Humidity, Max Sea Level PressureIn, Mean Sea Level PressureIn, Min Sea Level PressureIn, Max VisibilityMiles, Mean VisibilityMiles, Min VisibilityMiles, Max Wind SpeedMPH, Mean Wind SpeedMPH, Max Gust SpeedMPH,PrecipitationIn, CloudCover, Events, WindDirDegrees
2013-3-1,54,46,38,28,26,23,70,51,32,30.07,30.02,29.96,10,10,10,18,9,24,0.00,6,,324
2013-3-2,42,40,37,28,26,24,70,60,49,30.09,30.04,30.00,10,10,10,17,11,22,0.00,7,,327
2013-3-3,48,41,34,27,21,14,70,48,26,30.14,30.09,30.05,10,9,4,18,10,26,0.00,5,,329
2013-3-4,63,46,29,33,24,20,78,51,23,30.22,30.14,30.06,10,9,7,12,3,15,0.00,0,,186
2013-3-5,73,58,42,54,46,30,77,62,46,30.08,29.97,29.73,10,10,2,41,11,52,0.08,6,Rain-Thunderstorm,251
2013-3-6,50,43,36,32,25,18,76,56,36,30.22,30.13,30.00,10,10,10,24,13,31,0.00,1,,326
2013-3-7,66,49,31,29,26,23,70,45,20,30.30,30.23,30.18,10,10,5,13,5,16,0.00,0,,330
2013-3-8,70,54,37,35,29,26,70,45,20,30.32,30.25,30.19,10,10,8,10,2,14,0.00,0,,28
2013-3-9,70,56,42,34,30,26,57,40,22,30.30,30.23,30.17,10,10,10,13,6,17,0.00,0,,129
2013-3-10,76,64,52,46,39,28,48,41,33,30.18,30.11,30.04,10,10,10,20,9,25,0.00,0,,148
2013-3-11,70,61,51,59,55,44,97,77,57,30.06,29.88,29.77,10,6,1,22,10,29,1.01,7,Rain,225
2013-3-12,65,53,40,48,37,28,86,56,26,30.13,29.98,29.87,10,10,9,20,10,25,0.00,2,Rain,335
2013-3-13,63,50,37,34,25,13,79,47,14,30.27,30.20,30.14,10,10,10,25,9,33,0.00,0,,328
2013-3-14,64,50,35,24,17,10,52,33,14,30.41,30.32,30.25,10,10,10,15,6,21,0.00,0,,351
2013-3-15,76,57,38,42,34,27,76,50,23,30.29,30.18,30.05,10,10,10,18,6,25,0.00,0,,264
2013-3-16,78,63,48,47,41,37,77,50,23,30.09,30.03,29.93,10,10,4,20,9,26,0.00,0,,248
2013-3-17,72,63,53,59,54,48,100,77,53,30.07,30.00,29.94,10,8,0,15,6,21,0.00,4,Fog,218
2013-3-18,80,69,57,63,57,55,90,72,54,29.99,29.90,29.76,10,8,1,32,7,46,0.63,7,Rain-Hail-Thunderstorm,204
2013-3-19,75,65,55,56,42,23,93,54,15,30.05,29.98,29.86,10,10,5,16,6,21,T,2,Rain,359
2013-3-20,64,56,47,30,23,18,38,29,19,30.15,30.03,29.94,10,10,10,17,8,22,0.00,0,,350
2013-3-21,60,50,40,27,18,7,59,36,12,30.02,29.96,29.91,10,10,10,17,8,22,0.00,0,,334
2013-3-22,51,47,42,43,32,14,74,49,24,30.08,30.02,29.97,10,10,5,14,6,16,0.05,7,Rain,98
2013-3-23,63,57,50,54,47,40,71,64,57,29.99,29.86,29.73,10,9,5,23,7,32,0.60,8,Rain-Thunderstorm,108
2013-3-24,70,58,46,54,52,31,93,72,50,29.78,29.62,29.54,10,7,2,30,11,39,0.78,7,Rain-Thunderstorm,42
2013-3-25,55,47,39,30,22,18,54,38,22,30.14,29.94,29.80,10,10,10,29,16,36,0.00,3,,313
2013-3-26,49,41,33,24,21,19,64,48,31,30.32,30.21,30.13,10,10,10,22,11,28,0.00,3,,329
2013-3-27,61,47,32,26,22,19,66,43,20,30.39,30.32,30.25,10,10,10,16,5,22,0.00,0,,336
2013-3-28,69,52,35,33,26,23,76,48,19,30.37,30.30,30.23,10,10,10,16,4,25,0.00,0,,354
2013-3-29,73,56,39,37,33,30,79,51,22,30.35,30.26,30.17,10,10,10,13,3,17,0.00,1,,203
2013-3-30,76,65,54,50,45,35,67,53,39,30.20,30.12,30.03,10,10,10,16,7,21,T,6,Rain,230
2013-3-31,79,69,58,60,55,50,84,61,37,30.04,29.98,29.86,10,10,9,18,9,25,0.19,6,Rain-Thunderstorm,246